sat.trackr.live / text

‹ back to catalog

EXPRESS AMU-3

NORAD 50002 · 2021-123B

PAYLOAD ACTIVE UNKNOWN

§ Identity

Operator
Country
CIS
Launch date
2021-12-13
Launch site
TYMSC
Launch vehicle
Mass (kg)
RCS (m²)

Purposes: comms

External: N2YO · Heavens-Above · Gunter

§ Orbital elements

Epoch: 2026-05-22T01:15:45.683712Z

Period
1,436.15 min
Inclination
0.0266°
Eccentricity
0.0001332
Mean motion
1.00268090 rev/d
Perigee alt
35,782.0 km
Apogee alt
35,793.2 km
Semi-major
42,165.8 km
B*
0.0000e+0
RAAN
279.2437°
Arg perigee
150.7075°
Mean anomaly
290.0582°
Rev number
676

§ Raw data

EXPRESS AMU-31 50002U 21123B   26142.05261208 -.00000320  00000+0  00000+0 0  99992 50002   0.0266 279.2437 0001332 150.7075 290.0582  1.00268090  6762

JSON: /api/v1/satellites/50002 · /tle

For live sub-satellite position, see the globe view (requires WebGL).

§ Visibility from observer

Set your observer location to see the next 7 days of passes ≥ 10°. The values pass through the URL so the page stays shareable.

No JS? Fill the form by hand. The geolocation button needs JavaScript.